KLM1635 LIMC-HLLB

Flight info

Callsign KLM1635
Flight time 2h 15m
Altitude 37000
Route ROBAS DCT KUGIX DCT PEMAR DCT SOR DCT PEROS DCT VENIM DCT BONAR M7 RIGEM
Aircraft MD11/H-SDE1E2E3FGHIJ2J3J4J5M1RWXY/LB1D1

Departure

Time 2026-04-25 13:25
Airport Milan Malpensa International Airport (LIMC)

Arrival

Time 2026-04-25 15:40
Airport Benina International Airport (HLLB)
Time Latitude Longitude Altitude Speed Heading
2026-04-25 13:04 45.61491 8.72010 721 ft 0 kts 259°
2026-04-25 13:14 45.61491 8.72011 748 ft 1 kts 259°
2026-04-25 13:14 45.61494 8.72031 724 ft 3 kts 259°
2026-04-25 13:15 45.61498 8.72060 722 ft 3 kts 259°
2026-04-25 13:15 45.61502 8.72088 721 ft 3 kts 260°
2026-04-25 13:15 45.61505 8.72116 722 ft 3 kts 252°
2026-04-25 13:15 45.61510 8.72137 723 ft 3 kts 222°
2026-04-25 13:16 45.61509 8.72145 723 ft 2 kts 175°
2026-04-25 13:16 45.61518 8.72143 723 ft 3 kts 169°
2026-04-25 13:16 45.61537 8.72138 723 ft 2 kts 169°
2026-04-25 13:16 45.61542 8.72137 722 ft 1 kts 169°
2026-04-25 13:21 45.61532 8.72139 723 ft 3 kts 169°
2026-04-25 13:21 45.61501 8.72148 723 ft 5 kts 169°
2026-04-25 13:21 45.61466 8.72158 723 ft 6 kts 169°
2026-04-25 13:21 45.61412 8.72174 723 ft 8 kts 165°
2026-04-25 13:22 45.61393 8.72200 723 ft 1 kts 118°
2026-04-25 13:22 45.61388 8.72232 723 ft 5 kts 98°
2026-04-25 13:22 45.61390 8.72288 722 ft 5 kts 79°
2026-04-25 13:23 45.61401 8.72356 720 ft 3 kts 79°
2026-04-25 13:23 45.61406 8.72398 721 ft 6 kts 79°
2026-04-25 13:23 45.61419 8.72503 723 ft 13 kts 79°
2026-04-25 13:23 45.61436 8.72621 721 ft 14 kts 72°
2026-04-25 13:24 45.61533 8.72700 725 ft 24 kts 356°
2026-04-25 13:24 45.61908 8.72599 730 ft 93 kts 349°
2026-04-25 13:24 45.62782 8.72355 742 ft 160 kts 348°
2026-04-25 13:24 45.64025 8.71976 993 ft 193 kts 346°
2026-04-25 13:25 45.65362 8.71508 1693 ft 200 kts 338°
2026-04-25 13:25 45.66532 8.70530 2626 ft 185 kts 317°
2026-04-25 13:25 45.67536 8.69314 3363 ft 195 kts 318°
2026-04-25 13:25 45.68596 8.68103 3988 ft 196 kts 319°
2026-04-25 13:26 45.69684 8.66877 4641 ft 202 kts 320°
2026-04-25 13:26 45.70803 8.65607 5280 ft 209 kts 321°
2026-04-25 13:26 45.71946 8.64278 5857 ft 215 kts 317°
2026-04-25 13:26 45.72896 8.62615 6397 ft 219 kts 297°
2026-04-25 13:27 45.73294 8.60510 6934 ft 223 kts 271°
2026-04-25 13:27 45.72953 8.58339 7406 ft 228 kts 243°
2026-04-25 13:27 45.72382 8.57070 7770 ft 230 kts 235°
2026-04-25 13:27 45.71383 8.55264 8269 ft 232 kts 233°
2026-04-25 13:28 45.70346 8.53471 8770 ft 234 kts 232°
2026-04-25 13:28 45.69651 8.52274 8998 ft 239 kts 232°
2026-04-25 13:28 45.68197 8.49774 9438 ft 248 kts 232°
2026-04-25 13:28 45.67098 8.47889 9766 ft 252 kts 232°
2026-04-25 13:29 45.65961 8.45939 10064 ft 258 kts 232°
2026-04-25 13:29 45.64785 8.44006 10340 ft 257 kts 226°
2026-04-25 13:29 45.63332 8.42473 10627 ft 266 kts 207°
2026-04-25 13:30 45.59481 8.42400 10882 ft 306 kts 162°
2026-04-25 13:30 45.57404 8.43524 11040 ft 332 kts 158°
2026-04-25 13:30 45.55199 8.44915 11156 ft 358 kts 154°
2026-04-25 13:31 45.51217 8.49449 12286 ft 376 kts 127°
2026-04-25 13:31 45.49934 8.52704 13003 ft 381 kts 111°
2026-04-25 13:31 45.49202 8.56355 13660 ft 386 kts 102°
2026-04-25 13:31 45.48717 8.60141 14250 ft 392 kts 99°
2026-04-25 13:32 45.48287 8.64004 14785 ft 397 kts 99°
2026-04-25 13:32 45.47844 8.67900 15382 ft 401 kts 100°
2026-04-25 13:32 45.47368 8.71835 15942 ft 405 kts 101°
2026-04-25 13:32 45.46749 8.75723 16466 ft 409 kts 108°
2026-04-25 13:33 45.45832 8.79633 17012 ft 413 kts 112°
2026-04-25 13:33 45.44806 8.83400 17543 ft 416 kts 114°
2026-04-25 13:33 45.43711 8.87237 18083 ft 420 kts 114°
2026-04-25 13:33 45.42959 8.89851 18410 ft 423 kts 114°
2026-04-25 13:34 45.41481 8.95028 18922 ft 430 kts 114°
2026-04-25 13:34 45.40362 8.98986 19391 ft 432 kts 114°
2026-04-25 13:34 45.39241 9.02974 19814 ft 436 kts 114°
2026-04-25 13:34 45.38109 9.07013 20233 ft 439 kts 114°
2026-04-25 13:35 45.36976 9.11058 20645 ft 443 kts 114°
2026-04-25 13:35 45.35832 9.15141 21062 ft 446 kts 114°
2026-04-25 13:35 45.34677 9.19257 21484 ft 450 kts 114°
2026-04-25 13:35 45.33509 9.23413 21913 ft 453 kts 114°
2026-04-25 13:36 45.32332 9.27591 22343 ft 457 kts 114°
2026-04-25 13:36 45.31157 9.31755 22768 ft 461 kts 114°
2026-04-25 13:36 45.29963 9.35982 23317 ft 462 kts 114°
2026-04-25 13:36 45.28759 9.40234 23775 ft 466 kts 114°
2026-04-25 13:37 45.27545 9.44512 24174 ft 468 kts 114°
2026-04-25 13:37 45.26326 9.48803 24585 ft 471 kts 114°
2026-04-25 13:37 45.25095 9.53126 25014 ft 473 kts 114°
2026-04-25 13:37 45.23857 9.57469 25449 ft 476 kts 114°
2026-04-25 13:38 45.22610 9.61832 25860 ft 478 kts 114°
2026-04-25 13:38 45.21323 9.66208 26250 ft 481 kts 116°
2026-04-25 13:38 45.19757 9.70367 26764 ft 477 kts 126°
2026-04-25 13:38 45.17685 9.74015 27172 ft 474 kts 139°
2026-04-25 13:39 45.15185 9.77060 27524 ft 474 kts 146°
2026-04-25 13:39 45.12505 9.79778 27889 ft 476 kts 148°
2026-04-25 13:39 45.09755 9.82408 28274 ft 478 kts 149°
2026-04-25 13:39 45.06986 9.85066 28659 ft 481 kts 148°
2026-04-25 13:40 45.04227 9.87776 29042 ft 484 kts 148°
2026-04-25 13:40 45.01470 9.90543 29423 ft 487 kts 147°
2026-04-25 13:40 44.98713 9.93352 29791 ft 490 kts 147°
2026-04-25 13:40 44.95947 9.96191 30117 ft 493 kts 147°
2026-04-25 13:41 44.93172 9.99045 30441 ft 494 kts 146°
2026-04-25 13:41 44.90399 10.01895 30837 ft 493 kts 146°
2026-04-25 13:41 44.87662 10.04705 31213 ft 491 kts 146°
2026-04-25 13:41 44.84898 10.07535 31591 ft 490 kts 146°
2026-04-25 13:42 44.82140 10.10354 31877 ft 489 kts 146°
2026-04-25 13:42 44.79386 10.13164 32339 ft 488 kts 147°
2026-04-25 13:42 44.76635 10.15966 32700 ft 487 kts 147°
2026-04-25 13:42 44.73885 10.18764 33036 ft 486 kts 147°
2026-04-25 13:43 44.71141 10.21552 33386 ft 485 kts 146°
2026-04-25 13:43 44.68409 10.24324 33727 ft 484 kts 146°
2026-04-25 13:43 44.65688 10.27083 34054 ft 483 kts 146°
2026-04-25 13:43 44.62962 10.29844 34318 ft 482 kts 146°
2026-04-25 13:44 44.60283 10.32554 34569 ft 481 kts 146°
2026-04-25 13:44 44.57570 10.35295 34818 ft 480 kts 147°
2026-04-25 13:44 44.54860 10.38029 35067 ft 479 kts 147°
2026-04-25 13:44 44.52154 10.40757 35295 ft 479 kts 147°
2026-04-25 13:45 44.49450 10.43474 35535 ft 477 kts 147°
2026-04-25 13:45 44.46750 10.46171 35766 ft 476 kts 147°
2026-04-25 13:45 44.44051 10.48860 35976 ft 476 kts 147°
2026-04-25 13:45 44.41358 10.51547 36194 ft 475 kts 147°
2026-04-25 13:46 44.38664 10.54238 36388 ft 475 kts 147°
2026-04-25 13:46 44.35981 10.56920 36584 ft 474 kts 147°
2026-04-25 13:46 44.33300 10.59599 36804 ft 473 kts 147°
2026-04-25 13:46 44.30627 10.62269 37002 ft 472 kts 147°
2026-04-25 13:47 44.27956 10.64934 37175 ft 471 kts 147°
2026-04-25 13:47 44.25288 10.67593 37354 ft 471 kts 147°
2026-04-25 13:47 44.22622 10.70246 37525 ft 471 kts 147°
2026-04-25 13:47 44.19992 10.72860 37680 ft 470 kts 147°
2026-04-25 13:48 44.17323 10.75510 37836 ft 470 kts 147°
2026-04-25 13:48 44.14669 10.78144 38026 ft 469 kts 147°
2026-04-25 13:48 44.12009 10.80778 38067 ft 470 kts 147°
2026-04-25 13:49 44.06664 10.86063 38073 ft 472 kts 147°
2026-04-25 13:49 44.01308 10.91348 38081 ft 472 kts 147°
2026-04-25 13:50 43.95980 10.96594 38083 ft 472 kts 147°
2026-04-25 13:50 43.90620 11.01860 38086 ft 472 kts 147°
2026-04-25 13:51 43.85260 11.07113 38077 ft 471 kts 147°
2026-04-25 13:51 43.79900 11.12340 38080 ft 470 kts 147°
2026-04-25 13:52 43.74535 11.17538 38074 ft 470 kts 147°
2026-04-25 13:52 43.69179 11.22737 38078 ft 470 kts 147°
2026-04-25 13:53 43.63826 11.27935 38096 ft 469 kts 147°
2026-04-25 13:53 43.58523 11.33077 38098 ft 469 kts 147°
2026-04-25 13:54 43.53224 11.38334 38097 ft 469 kts 144°
2026-04-25 13:54 43.48023 11.43795 38098 ft 470 kts 144°
2026-04-25 13:55 43.42845 11.49277 38088 ft 469 kts 144°
2026-04-25 13:55 43.37667 11.54730 38091 ft 468 kts 143°
2026-04-25 13:56 43.32480 11.60168 38095 ft 468 kts 144°
2026-04-25 13:56 43.27296 11.65587 38090 ft 468 kts 144°
2026-04-25 13:57 43.22101 11.71006 38085 ft 469 kts 143°
2026-04-25 13:57 43.16936 11.76383 38086 ft 470 kts 144°
2026-04-25 13:58 43.11717 11.81804 38086 ft 470 kts 144°
2026-04-25 13:58 43.06492 11.87218 38086 ft 470 kts 143°
2026-04-25 13:59 43.01280 11.92609 38083 ft 470 kts 144°
2026-04-25 13:59 42.96089 11.97964 38080 ft 470 kts 143°
2026-04-25 14:00 42.91744 12.02439 38079 ft 470 kts 143°
2026-04-25 14:00 42.85633 12.08688 38084 ft 470 kts 143°
2026-04-25 14:01 42.80403 12.14019 38082 ft 470 kts 143°
2026-04-25 14:01 42.75174 12.19360 38077 ft 470 kts 143°
2026-04-25 14:02 42.69940 12.24702 38078 ft 470 kts 143°
2026-04-25 14:02 42.64740 12.30000 38077 ft 470 kts 143°
2026-04-25 14:03 42.59514 12.35311 38069 ft 470 kts 143°
2026-04-25 14:03 42.54277 12.40622 38069 ft 469 kts 143°
2026-04-25 14:04 42.49049 12.45913 38069 ft 468 kts 143°
2026-04-25 14:04 42.43848 12.51164 38067 ft 468 kts 143°
2026-04-25 14:05 42.38615 12.56437 38069 ft 468 kts 143°
2026-04-25 14:05 42.33385 12.61696 38070 ft 468 kts 143°
2026-04-25 14:06 42.28147 12.66951 38070 ft 468 kts 143°
2026-04-25 14:06 42.22940 12.72162 38068 ft 468 kts 143°
2026-04-25 14:07 42.17694 12.77368 38066 ft 468 kts 143°
2026-04-25 14:07 42.12455 12.82569 38066 ft 468 kts 143°
2026-04-25 14:08 42.07228 12.87764 38071 ft 466 kts 143°
2026-04-25 14:08 42.02005 12.92963 38069 ft 466 kts 142°
2026-04-25 14:09 41.96815 12.98184 38070 ft 466 kts 142°
2026-04-25 14:09 41.91630 13.03411 38070 ft 466 kts 142°
2026-04-25 14:10 41.86448 13.08625 38066 ft 466 kts 142°
2026-04-25 14:10 41.81253 13.13838 38073 ft 467 kts 142°
2026-04-25 14:11 41.76046 13.19052 38063 ft 466 kts 142°
2026-04-25 14:11 41.70854 13.24238 38072 ft 465 kts 142°
2026-04-25 14:12 41.65669 13.29408 38076 ft 465 kts 142°
2026-04-25 14:12 41.60513 13.34539 38068 ft 464 kts 142°
2026-04-25 14:13 41.55325 13.39691 38071 ft 464 kts 142°
2026-04-25 14:13 41.50139 13.44830 38071 ft 464 kts 142°
2026-04-25 14:14 41.44944 13.49967 38073 ft 465 kts 142°
2026-04-25 14:14 41.39777 13.55067 38073 ft 465 kts 143°
2026-04-25 14:15 41.34570 13.60180 38075 ft 465 kts 143°
2026-04-25 14:15 41.29344 13.65283 38091 ft 465 kts 143°
2026-04-25 14:16 41.24127 13.70388 38087 ft 466 kts 143°
2026-04-25 14:16 41.18905 13.75499 38088 ft 466 kts 143°
2026-04-25 14:17 41.13688 13.80596 38091 ft 466 kts 143°
2026-04-25 14:17 41.08504 13.85651 38094 ft 465 kts 143°
2026-04-25 14:18 41.03289 13.90724 38095 ft 465 kts 143°
2026-04-25 14:18 40.98083 13.95779 38096 ft 463 kts 142°
2026-04-25 14:19 40.93756 13.99974 38093 ft 463 kts 143°
2026-04-25 14:19 40.88516 14.05043 38100 ft 464 kts 143°
2026-04-25 14:20 40.83336 14.10045 38102 ft 465 kts 143°
2026-04-25 14:20 40.78107 14.15083 38100 ft 465 kts 143°
2026-04-25 14:21 40.72869 14.20121 38100 ft 465 kts 143°
2026-04-25 14:21 40.67633 14.25132 38100 ft 465 kts 143°
2026-04-25 14:22 40.62251 14.29859 38103 ft 466 kts 147°
2026-04-25 14:22 40.56713 14.34229 38104 ft 466 kts 148°
2026-04-25 14:23 40.51135 14.38586 38099 ft 466 kts 148°
2026-04-25 14:23 40.45567 14.42968 38099 ft 467 kts 148°
2026-04-25 14:24 40.39992 14.47365 38103 ft 467 kts 148°
2026-04-25 14:24 40.34440 14.51739 38103 ft 468 kts 148°
2026-04-25 14:25 40.28858 14.56128 38100 ft 468 kts 148°
2026-04-25 14:25 40.23272 14.60510 38102 ft 468 kts 148°
2026-04-25 14:26 40.17685 14.64885 38102 ft 468 kts 148°
2026-04-25 14:26 40.12080 14.69264 38103 ft 469 kts 148°
2026-04-25 14:27 40.06477 14.73634 38102 ft 470 kts 148°
2026-04-25 14:27 40.00854 14.78011 38100 ft 470 kts 148°
2026-04-25 14:28 39.95267 14.82351 38108 ft 471 kts 148°
2026-04-25 14:28 39.89612 14.86713 38102 ft 472 kts 149°
2026-04-25 14:29 39.83961 14.91068 38102 ft 472 kts 149°
2026-04-25 14:29 39.78304 14.95432 38103 ft 473 kts 148°
2026-04-25 14:30 39.72643 14.99796 38105 ft 473 kts 148°
2026-04-25 14:30 39.64176 15.06308 38108 ft 473 kts 148°
2026-04-25 14:31 39.58499 15.10663 38104 ft 473 kts 148°
2026-04-25 14:31 39.52826 15.15007 38108 ft 474 kts 148°
2026-04-25 14:32 39.47144 15.19350 38114 ft 474 kts 148°
2026-04-25 14:32 39.41461 15.23684 38113 ft 474 kts 148°
2026-04-25 14:33 39.35802 15.27992 38115 ft 475 kts 148°
2026-04-25 14:33 39.30092 15.32330 38116 ft 475 kts 148°
2026-04-25 14:34 39.24394 15.36653 38121 ft 475 kts 148°
2026-04-25 14:34 39.18678 15.40961 38123 ft 476 kts 149°
2026-04-25 14:35 39.12991 15.45237 38122 ft 476 kts 148°
2026-04-25 14:35 39.07270 15.49545 38121 ft 477 kts 148°
2026-04-25 14:36 39.01542 15.53856 38124 ft 477 kts 148°
2026-04-25 14:36 38.95808 15.58164 38121 ft 478 kts 149°
2026-04-25 14:37 38.90063 15.62472 38123 ft 479 kts 149°
2026-04-25 14:37 38.84306 15.66780 38125 ft 479 kts 149°
2026-04-25 14:38 38.78538 15.71088 38118 ft 479 kts 149°
2026-04-25 14:38 38.72774 15.75385 38116 ft 479 kts 149°
2026-04-25 14:39 38.67031 15.79658 38116 ft 480 kts 149°
2026-04-25 14:39 38.61274 15.83991 38115 ft 480 kts 148°
2026-04-25 14:40 38.55541 15.88422 38116 ft 481 kts 148°
2026-04-25 14:40 38.49826 15.92862 38113 ft 481 kts 148°
2026-04-25 14:41 38.44090 15.97306 38109 ft 482 kts 148°
2026-04-25 14:41 38.38353 16.01737 38112 ft 483 kts 147°
2026-04-25 14:42 38.33578 16.05417 38108 ft 483 kts 147°
2026-04-25 14:42 38.26878 16.10571 38093 ft 484 kts 147°
2026-04-25 14:43 38.21101 16.15007 38095 ft 485 kts 148°
2026-04-25 14:43 38.15349 16.19414 38087 ft 485 kts 148°
2026-04-25 14:44 38.09566 16.23838 38080 ft 485 kts 148°
2026-04-25 14:44 38.03779 16.28256 38081 ft 485 kts 148°
2026-04-25 14:45 37.97981 16.32675 38072 ft 486 kts 148°
2026-04-25 14:45 37.92182 16.37081 38071 ft 486 kts 148°
2026-04-25 14:46 37.86361 16.41476 38078 ft 487 kts 148°
2026-04-25 14:46 37.80543 16.45872 38078 ft 487 kts 148°
2026-04-25 14:47 37.75711 16.49526 38077 ft 487 kts 148°
2026-04-25 14:47 37.68939 16.54640 38078 ft 488 kts 148°
2026-04-25 14:48 37.63101 16.59040 38081 ft 488 kts 148°
2026-04-25 14:48 37.57258 16.63435 38080 ft 489 kts 148°
2026-04-25 14:49 37.51422 16.67816 38080 ft 489 kts 148°
2026-04-25 14:49 37.45568 16.72203 38092 ft 489 kts 148°
2026-04-25 14:50 37.39743 16.76560 38084 ft 490 kts 148°
2026-04-25 14:50 37.33872 16.80944 38083 ft 490 kts 148°
2026-04-25 14:51 37.27995 16.85324 38083 ft 491 kts 148°
2026-04-25 14:51 37.22126 16.89689 38083 ft 491 kts 148°
2026-04-25 14:52 37.16238 16.94040 38083 ft 491 kts 148°
2026-04-25 14:52 37.11335 16.97660 38083 ft 491 kts 148°
2026-04-25 14:53 37.04455 17.02745 38084 ft 491 kts 148°
2026-04-25 14:53 36.98597 17.07072 38084 ft 492 kts 148°
2026-04-25 14:54 36.92694 17.11424 38083 ft 492 kts 148°
2026-04-25 14:54 36.86793 17.15766 38083 ft 492 kts 148°
2026-04-25 14:55 36.80874 17.20113 38083 ft 493 kts 148°
2026-04-25 14:55 36.74964 17.24446 38083 ft 493 kts 148°
2026-04-25 14:56 36.69089 17.28745 38083 ft 493 kts 148°
2026-04-25 14:56 36.63171 17.33068 38081 ft 493 kts 148°
2026-04-25 14:57 36.57242 17.37391 38081 ft 494 kts 148°
2026-04-25 14:57 36.51295 17.41721 38087 ft 494 kts 148°
2026-04-25 14:58 36.45401 17.46150 38084 ft 494 kts 147°
2026-04-25 14:58 36.39592 17.50625 38086 ft 494 kts 147°
2026-04-25 14:59 36.33752 17.55130 38080 ft 495 kts 147°
2026-04-25 14:59 36.27892 17.59633 38080 ft 495 kts 147°
2026-04-25 15:00 36.22032 17.64122 38088 ft 495 kts 147°
2026-04-25 15:00 36.16167 17.68606 38083 ft 495 kts 147°
2026-04-25 15:01 36.10297 17.73086 38080 ft 496 kts 147°
2026-04-25 15:01 36.04419 17.77565 38080 ft 497 kts 147°
2026-04-25 15:02 35.98533 17.82041 38077 ft 497 kts 147°
2026-04-25 15:02 35.92636 17.86518 38080 ft 497 kts 147°
2026-04-25 15:03 35.86742 17.90985 38072 ft 497 kts 147°
2026-04-25 15:03 35.80837 17.95453 38075 ft 498 kts 148°
2026-04-25 15:04 35.74923 17.99899 38075 ft 498 kts 148°
2026-04-25 15:04 35.69004 18.04345 38072 ft 498 kts 148°
2026-04-25 15:05 35.63117 18.08771 38075 ft 499 kts 148°
2026-04-25 15:06 35.54232 18.15444 38075 ft 499 kts 148°
2026-04-25 15:06 35.48301 18.19888 38072 ft 500 kts 148°
2026-04-25 15:07 35.42357 18.24333 38073 ft 500 kts 148°
2026-04-25 15:07 35.37416 18.28022 38072 ft 500 kts 148°
2026-04-25 15:08 35.31470 18.32455 38068 ft 500 kts 149°
2026-04-25 15:08 35.25504 18.36895 38072 ft 501 kts 149°
2026-04-25 15:09 35.19543 18.41323 38074 ft 501 kts 149°
2026-04-25 15:09 35.10583 18.47965 38075 ft 503 kts 149°
2026-04-25 15:10 35.04634 18.52351 38065 ft 503 kts 149°
2026-04-25 15:11 34.95624 18.58978 38074 ft 504 kts 149°
2026-04-25 15:11 34.89605 18.63410 38072 ft 505 kts 149°
2026-04-25 15:12 34.80577 18.70045 38072 ft 506 kts 149°
2026-04-25 15:12 34.75562 18.73724 38065 ft 506 kts 150°
2026-04-25 15:13 34.65499 18.81087 38074 ft 508 kts 150°
2026-04-25 15:14 34.59436 18.85513 38067 ft 509 kts 150°
2026-04-25 15:14 34.53360 18.89942 38069 ft 509 kts 150°
2026-04-25 15:15 34.47286 18.94361 38069 ft 509 kts 150°
2026-04-25 15:15 34.41241 18.98752 38067 ft 509 kts 150°
2026-04-25 15:16 34.35075 19.02960 38067 ft 507 kts 158°
2026-04-25 15:16 34.24858 19.05617 38068 ft 500 kts 179°
2026-04-25 15:17 34.14426 19.06512 38069 ft 502 kts 177°
2026-04-25 15:18 34.07517 19.07448 38067 ft 503 kts 176°
2026-04-25 15:18 33.97088 19.09025 38063 ft 503 kts 176°
2026-04-25 15:19 33.91270 19.09900 38074 ft 503 kts 176°
2026-04-25 15:19 33.83187 19.11103 38070 ft 500 kts 176°
2026-04-25 15:20 33.76290 19.12125 38063 ft 498 kts 176°
2026-04-25 15:20 33.72897 19.12627 37798 ft 495 kts 176°
2026-04-25 15:20 33.69479 19.13133 37446 ft 496 kts 176°
2026-04-25 15:21 33.66056 19.13638 36971 ft 496 kts 176°
2026-04-25 15:21 33.62625 19.14143 36359 ft 495 kts 176°
2026-04-25 15:21 33.59200 19.14648 35781 ft 495 kts 176°
2026-04-25 15:21 33.55783 19.15152 35208 ft 495 kts 176°
2026-04-25 15:22 33.52366 19.15655 34638 ft 495 kts 176°
2026-04-25 15:22 33.48948 19.16157 34063 ft 495 kts 176°
2026-04-25 15:22 33.45529 19.16657 33397 ft 495 kts 176°
2026-04-25 15:22 33.42105 19.17158 32815 ft 496 kts 175°
2026-04-25 15:23 33.38712 19.17655 32189 ft 496 kts 175°
2026-04-25 15:23 33.35285 19.18157 31577 ft 496 kts 175°
2026-04-25 15:23 33.31861 19.18658 30976 ft 495 kts 175°
2026-04-25 15:23 33.28440 19.19160 30375 ft 495 kts 174°
2026-04-25 15:24 33.25023 19.19660 29663 ft 495 kts 174°
2026-04-25 15:24 33.21603 19.20160 28954 ft 496 kts 174°
2026-04-25 15:24 33.18158 19.20664 28280 ft 500 kts 175°
2026-04-25 15:24 33.15874 19.20997 27834 ft 501 kts 174°
2026-04-25 15:25 33.11229 19.21675 26967 ft 503 kts 174°
2026-04-25 15:25 33.07767 19.22179 26305 ft 499 kts 174°
2026-04-25 15:25 33.04331 19.22681 25655 ft 495 kts 174°
2026-04-25 15:25 33.00916 19.23178 25007 ft 491 kts 174°
2026-04-25 15:26 32.97543 19.23669 24373 ft 486 kts 173°
2026-04-25 15:26 32.94238 19.24149 23740 ft 480 kts 173°
2026-04-25 15:26 32.90948 19.24626 23019 ft 475 kts 173°
2026-04-25 15:26 32.87663 19.25103 22370 ft 472 kts 173°
2026-04-25 15:27 32.84421 19.25634 21726 ft 470 kts 169°
2026-04-25 15:27 32.81280 19.26669 21024 ft 465 kts 157°
2026-04-25 15:27 32.76179 19.31130 19687 ft 454 kts 129°
2026-04-25 15:28 32.74240 19.34069 19031 ft 450 kts 124°
2026-04-25 15:28 32.72431 19.37087 18374 ft 446 kts 123°
2026-04-25 15:28 32.70633 19.40077 17647 ft 443 kts 124°
2026-04-25 15:28 32.68811 19.43004 16966 ft 439 kts 126°
2026-04-25 15:29 32.66962 19.45874 16316 ft 436 kts 126°
2026-04-25 15:29 32.65094 19.48705 15694 ft 434 kts 127°
2026-04-25 15:29 32.63220 19.51506 15073 ft 431 kts 127°
2026-04-25 15:29 32.61358 19.54271 14460 ft 427 kts 128°
2026-04-25 15:30 32.59505 19.57015 13809 ft 424 kts 128°
2026-04-25 15:30 32.57700 19.59685 13134 ft 419 kts 128°
2026-04-25 15:30 32.55877 19.62381 12501 ft 417 kts 128°
2026-04-25 15:30 32.54071 19.65052 11910 ft 414 kts 128°
2026-04-25 15:31 32.52276 19.67706 11380 ft 411 kts 128°
2026-04-25 15:31 32.50486 19.70351 11132 ft 408 kts 128°
2026-04-25 15:31 32.48757 19.72903 10990 ft 387 kts 128°
2026-04-25 15:31 32.47108 19.75333 10872 ft 369 kts 128°
2026-04-25 15:32 32.45536 19.77649 10716 ft 353 kts 127°
2026-04-25 15:32 32.44027 19.79873 10584 ft 339 kts 127°
2026-04-25 15:32 32.42563 19.82030 10218 ft 335 kts 127°
2026-04-25 15:33 32.39621 19.86364 8961 ft 337 kts 127°
2026-04-25 15:33 32.38379 19.88611 8407 ft 324 kts 115°
2026-04-25 15:33 32.37448 19.90961 7890 ft 308 kts 110°
2026-04-25 15:33 32.36650 19.93246 7424 ft 294 kts 109°
2026-04-25 15:34 32.35892 19.95488 6989 ft 294 kts 108°
2026-04-25 15:34 32.35132 19.97748 6511 ft 296 kts 109°
2026-04-25 15:34 32.34366 20.00015 6020 ft 296 kts 108°
2026-04-25 15:34 32.33858 20.01511 5735 ft 295 kts 109°
2026-04-25 15:35 32.32118 20.06597 4790 ft 279 kts 109°
2026-04-25 15:35 32.31391 20.08718 4377 ft 278 kts 109°
2026-04-25 15:35 32.30665 20.10833 3980 ft 277 kts 109°
2026-04-25 15:36 32.28389 20.14393 3226 ft 276 kts 144°
2026-04-25 15:36 32.26790 20.15611 2850 ft 270 kts 148°
2026-04-25 15:36 32.25245 20.16697 2631 ft 255 kts 149°
2026-04-25 15:37 32.23730 20.17748 2489 ft 245 kts 149°
2026-04-25 15:37 32.22312 20.18725 2125 ft 228 kts 149°
2026-04-25 15:37 32.20948 20.19648 2005 ft 225 kts 150°
2026-04-25 15:37 32.19640 20.20532 1860 ft 207 kts 150°
2026-04-25 15:38 32.18396 20.21375 1769 ft 207 kts 149°
2026-04-25 15:38 32.17167 20.22208 1519 ft 196 kts 150°
2026-04-25 15:38 32.16015 20.22991 1284 ft 188 kts 150°
2026-04-25 15:38 32.14894 20.23751 936 ft 184 kts 150°
2026-04-25 15:39 32.13774 20.24475 778 ft 186 kts 151°
2026-04-25 15:39 32.12664 20.25192 603 ft 177 kts 152°
2026-04-25 15:39 32.11529 20.25925 534 ft 185 kts 152°
2026-04-25 15:39 32.10432 20.26636 424 ft 167 kts 149°
2026-04-25 15:40 32.09550 20.27233 411 ft 128 kts 150°
2026-04-25 15:40 32.09306 20.27397 410 ft 112 kts 150°
2026-04-25 15:40 32.08581 20.27882 392 ft 38 kts 151°
2026-04-25 15:40 32.08391 20.27992 392 ft 13 kts 174°
2026-04-25 15:41 32.08325 20.27960 394 ft 8 kts 226°
2026-04-25 15:41 32.08312 20.27932 396 ft 0 kts 246°
2026-04-25 15:41 32.08297 20.27899 406 ft 8 kts 241°
2026-04-25 15:41 32.08270 20.27840 423 ft 11 kts 241°
2026-04-25 15:42 32.08225 20.27749 433 ft 18 kts 240°
2026-04-25 15:42 32.08159 20.27611 436 ft 20 kts 240°
2026-04-25 15:42 32.08168 20.27470 424 ft 18 kts 316°
2026-04-25 15:42 32.08269 20.27389 426 ft 17 kts 328°
2026-04-25 15:43 32.08365 20.27320 426 ft 16 kts 331°
2026-04-25 15:43 32.08457 20.27264 423 ft 14 kts 333°
2026-04-25 15:43 32.08549 20.27205 422 ft 17 kts 330°
2026-04-25 15:43 32.08650 20.27134 422 ft 16 kts 324°
2026-04-25 15:44 32.08684 20.27041 422 ft 11 kts 264°
2026-04-25 15:44 32.08682 20.27018 426 ft 1 kts 264°
2026-04-25 15:44 32.08681 20.27014 427 ft 0 kts 264°